Weather in Limanskiy

Ukraine / Odesa District     45°25′55″N   28°24′45″E
temp.,
°C
wind,
m/s
gust,
m/s
humid.,
%
clouds,
%
prec.,
mm/h
press.,
hPa
HPBL,
m
3 march, wed
wed323:00+5wnw598147 0.0 1027172
02:00+6nnw8167852 0.0 1029601
05:00+5n613860 0.0 1029532
08:00+5n510828 0.0 1030701
11:00+7n576579 0.0 1031807
14:00+10nnw565241 0.0 10301097
17:00+10nnw34540 0.0 10291051
20:00+7nne01650 0.0 102922
4 march, thu
thu423:00+7ssw23690 0.0 102724
02:00+5ssw46780 0.0 1026125
05:00+4ssw488415 0.0 1023188
08:00+5ssw511817 0.0 1022332
11:00+10sw711590 0.0 1019598
14:00+14sw811470 0.0 1017693
17:00+14sw69480 0.0 1014484
20:00+10sw59641 0.0 1014185
5 march, fri
fri523:00+9sw59702 0.0 1014154
02:00+7wsw47743 0.0 1013115
05:00+6wsw34770 0.0 101271
08:00+7wsw46745 0.0 1012194
11:00+11wsw565519 0.0 1011335
14:00+15w573154 0.0 10101264
17:00+14sw4637100 0.0 1010147
20:00+9nnw8146563 0.0 1013379
6 march, sat
sat623:00+6n7127614 0.0 1016545
02:00+5n7117153 0.0 1018656
05:00+4n696999 0.0 1020909
08:00+3nne6964100 0.0 1023948
11:00+4n7957100 0.0 10251297
14:00+5n6836100 0.1 10251657
17:00+5n6835100 0.0 10261685
20:00+3n594272 0.0 1029461
7 march, sun
sun723:00+1n49480 0.0 1031335
02:000nnw47580 0.0 1031186
05:00−1n34560 0.0 1030119
08:000nw11461 0.0 1031156
11:00+3sw46360 0.0 1029934
14:00+6wsw68350 0.0 10261487
17:00+6wsw68390 0.0 10231308
20:00+3sw59550 0.0 1022290